Location: The Saddle
(36.8333°N, 80.3417°W)
Time: 09:13:47
(UTC-04:00)

A-11 Canister half - Pass Details

Date: 29 May 2024
Orbit: 1515 x 1685 km, 47.2° (Epoch: 17 June)

Event Time Altitude Azimuth Distance (km) Brightness Sun altitude
Exits shadow 02:26:59 23° 261° (W) 2,914 10.2 -29.3°
Maximum altitude 02:33:33 63° 336° (NNW) 1,711 9.3 -28.9°
Drops below altitude 10° 02:42:51 10° 57° (ENE) 3,704 11.7 -28.2°
Sets 02:45:55 0° 61° (ENE) 4,675 12.3 -28.0°
